Miscellaneous Local Product
Issued by NWS Hastings, NE

Home | Current Version | Previous Version | Text Only | Print | Product List | Glossary Off
Versions: 1 2 3 4 5 6 7 8 9 10 11 12 13 14 15 16 17 18 19 20 21 22 23 24 25 26 27 28 29 30 31 32 33 34 35 36 37 38 39 40 41 42 43 44 45 46 47 48 49 50

000
AXUS43 KGID 240002
MISGRI

GID CWA HOURLY WEATHER ROUNDUP
NATIONAL WEATHER SERVICE HASTINGS NE
600 PM CST THU FEB 23 2017

NOTE: "FAIR" INDICATES FEW OR NO CLOUDS BELOW 12,000 FEET WITH NO
SIGNIFICANT WEATHER AND/OR OBSTRUCTIONS TO VISIBILITY.

...SOUTH CENTRAL NEBRASKA...

CITY           SKY/WX    TMP DP  RH WIND       PRES   REMARKS
GRAND ISLAND   LGT SNOW  31  31 100 NE16G23   29.66R FOG     WCI  20
HASTINGS       LGT SNOW  32  31  96 NE22      29.61R VSB 3/4 WCI  19
KEARNEY        CLOUDY    32  28  86 NE15      29.63R WCI  22
ORD            SNOW      29  26  89 NE17      29.64F VSB 1/2 WCI  17
YORK           LGT RAIN  32  32 100 N20G25    29.63R WCI  20
AURORA         MIX PCPN  32  32  99 NE16G23   29.64R WCI  21
LEXINGTON      LGT SNOW  30  28  92 NE13      29.67R WCI  20
HOLDREGE       LGT SNOW  31  30  94 NE14      29.62R WCI  21
HEBRON         LGT RAIN  37  36  96 N18G24    29.55R WCI  27

...NEBRASKA PANHANDLE...

CITY           SKY/WX    TMP DP  RH WIND       PRES   REMARKS
CHADRON        CLOUDY    25  22  88 NE20G28   29.84R FOG     WCI  11
ALLIANCE       FOG       22  19  89 N21G29    29.76R VSB 3/4 WCI   6
SCOTTSBLUFF    SNOW      23  20  88 N6        29.82R VSB 1/2 WCI  16
SIDNEY         LGT SNOW  22  19  89 N17       29.73R VSB 3/4 WCI   8

...WESTERN AND NORTH CENTRAL NEBRASKA...

CITY           SKY/WX    TMP DP  RH WIND       PRES   REMARKS
VALENTINE      SNOW      26  22  84 N20G29    29.80R VSB 1/2 WCI  12
AINSWORTH      LGT SNOW  26  26  97 N21       29.76R VSB 3/4 WCI  12
ONEILL         HVY SNOW  29  28  97 N21       29.76R VSB 1/4 WCI  16
BROKEN BOW     SNOW      29  27  92 N13       29.67R VSB 1/2 WCI  19
IMPERIAL       LGT SNOW  27  23  85 N18       29.70R VSB 1   WCI  14
NORTH PLATTE   LGT SNOW  29  24  82 N20       29.69R VSB 1   WCI  16
MCCOOK         FLURRIES  31  29  92 N16       29.67R WCI  20

...EASTERN NEBRASKA...

CITY           SKY/WX    TMP DP  RH WIND       PRES   REMARKS
NORFOLK        HVY SNOW  30  28  92 NE13G23   29.68R VSB 1/4 WCI  20
SO SIOUX CITY  LGT SNOW  34  30  86 NE18G29   29.70S FOG     WCI  23
TEKAMAH        LGT RAIN  36  32  85 NE22G31   29.65F WCI  25
COLUMBUS       CLOUDY    32  28  86 NE20      29.65R WCI  20
ALBION         HVY SNOW  32  29  90 N12       29.69F VSB 1/4 WCI  23
OMAHA EPPLEY   TSTM      38  33  82 NE17      29.61R WCI  28
OFFUTT AFB     DRIZZLE   39  36  87 NE16G25   29.58R WCI  30
MILLARD        LGT RAIN  39  37  89 NE3G24    29.61R
LINCOLN        LGT RAIN  38  36  92 NE16      29.59S FOG     WCI  29
NEBRASKA CITY  CLOUDY    42  36  80 NE17G29   29.53S
BEATRICE       CLOUDY    40  39  96 NE16      29.53S FOG     WCI  32
FALLS CITY     CLOUDY    50  41  71 NE12      29.48R

...NORTHERN KANSAS...

CITY           SKY/WX    TMP DP  RH WIND       PRES   REMARKS
GOODLAND       CLOUDY    29  28  96 N20       29.63R WCI  16
HILL CITY      CLOUDY    35  33  92 NE16      29.60R WCI  25
NORTON         CLOUDY    34  28  80 NW14      29.62R WCI  24
PHILLIPSBURG   LGT RAIN  36  36 100 N13       29.58S WCI  27
SMITH CENTER   CLOUDY    34  30  86 NE21G32   29.56F FOG     WCI  22
HAYS           CLOUDY    37  33  85 N26G36    29.53R WCI  25
RUSSELL        CLOUDY    40  33  76 N26G36    29.48R WCI  29
CONCORDIA      CLOUDY    41  37  86 N17G26    29.49R
SALINA         PTCLDY    53  40  61 N21       29.41R
TOPEKA         CLEAR     58  48  69 NE12      29.41R



USA.gov is the U.S. government's official web portal to all federal, state and local government web resources and services.